Location: Tamazert
(32.6352°N, 5.2072°W)
Time: 06:40:20
(UTC+00:00)

Vanguard 2 - Pass Details

Date: 11 October 2022
Orbit: 553 x 2933 km, 32.9° (Epoch: 26 November)

Event Time Altitude Azimuth Distance (km) Brightness Sun altitude
Rises 19:30:46 0° 270° (W) 6,402 13.8 -21.4°
Reaches altitude 10° 19:38:32 10° 248° (WSW) 5,668 12.8 -23.0°
Maximum altitude 19:45:25 13° 224° (SW) 5,452 12.2 -24.5°
Drops below altitude 10° 19:52:23 10° 200° (SSW) 5,686 12.1 -25.9°
Sets 20:00:25 0° 178° (S) 6,428 12.1 -27.6°
